Maxton, NC

6:30 AM EST on February 20, 2017 (GMT -0500)
Laurinburg-Maxton

Weather History for KMEB - August, 2013

Change the Weather History Date:

Friday, August 2, 2013

  Actual Average (KHFF) Record (KHFF)
Temperature  
Mean Temperature 79 °F -  
Max Temperature 88 °F 88 °F 98 °F (2006)
Min Temperature 71 °F 69 °F 65 °F (2014)
Cooling Degree Days 14    
Growing Degree Days 29 (Base 50)    
Moisture  
Dew Point 73 °F    
Average Humidity 85    
Maximum Humidity 100    
Minimum Humidity 63    
Precipitation  
Precipitation 0.00 in - - ()
Sea Level Pressure  
Sea Level Pressure 29.98 in    
Wind  
Wind Speed 2 mph (SW)    
Max Wind Speed 10 mph    
Max Gust Speed -    
Visibility 7 miles    
Events Fog    
Averages and records for this station are not official NWS values.
T = Trace of Precipitation, MM = Missing Value Source: NWS Daily Summary

Daily Weather History Graph

Daily Weather History Graph

Search for Another Location

Airport or City:

Trip Planner

Search our weather history database for the weather conditions in past years. The results will help you decide how hot, cold, wet, or windy it might be!

Date:

Astronomy

Aug. 02, 2013 Rise Set
Actual Time 6:28 AM EDT 8:18 PM EDT
Civil Twilight 6:00 AM EDT 8:46 PM EDT
Nautical Twilight 5:27 AM EDT 9:19 PM EDT
Astronomical Twilight 4:51 AM EDT 9:55 PM EDT
Moon 2:49 AM EDT (8/2) 5:13 PM EDT (8/2)
Length of Visible Light 14h 45m
Length of Day
13h 50m
Waning Crescent, 16% of the Moon is Illuminated
Aug 2
Waning Crescent
Aug 6
New
Aug 14
First Quarter
Aug 20
Full
Aug 28
Last Quarter

Hourly Weather History & Observations

Time (EDT) Temp. Heat Index Dew Point Humidity Pressure Visibility Wind Dir Wind Speed Gust Speed Precip Events Conditions
12:52 AM 73.9 °F - 73.0 °F 97% 29.96 in 6.0 mi SW 4.6 mph - N/A   Clear
1:29 AM 73.4 °F - 73.4 °F 100% 29.96 in 5.0 mi SW 4.6 mph - N/A   Mostly Cloudy
1:52 AM 73.9 °F - 73.0 °F 97% 29.95 in 5.0 mi SSW 3.5 mph - N/A   Partly Cloudy
2:52 AM 73.0 °F - 72.0 °F 96% 29.94 in 4.0 mi Calm Calm - N/A   Partly Cloudy
3:12 AM 71.6 °F - 71.6 °F 100% 29.95 in 2.5 mi Calm Calm - N/A   Clear
3:34 AM 71.6 °F - 71.6 °F 100% 29.95 in 3.0 mi Calm Calm - N/A   Partly Cloudy
3:50 AM 71.6 °F - 71.6 °F 100% 29.94 in 3.0 mi Calm Calm - N/A   Mostly Cloudy
3:52 AM 72.0 °F - 71.1 °F 97% 29.94 in 3.0 mi Calm Calm - N/A   Mostly Cloudy
4:14 AM 71.6 °F - 71.6 °F 100% 29.94 in 3.0 mi Calm Calm - N/A   Overcast
4:30 AM 71.6 °F - 71.6 °F 100% 29.94 in 1.8 mi Calm Calm - N/A   Overcast
4:35 AM 71.6 °F - 71.6 °F 100% 29.94 in 0.5 mi Calm Calm - N/A Fog Fog
4:46 AM 73.4 °F - 71.6 °F 94% 29.93 in 1.0 mi Calm Calm - N/A   Overcast
4:52 AM 73.0 °F - 72.0 °F 96% 29.92 in 2.0 mi Calm Calm - N/A   Overcast
5:17 AM 73.4 °F - 73.4 °F 100% 29.94 in 1.2 mi Calm Calm - N/A   Overcast
5:25 AM 73.4 °F - 71.6 °F 94% 29.94 in 3.0 mi Calm Calm - N/A   Overcast
5:52 AM 73.0 °F - 72.0 °F 96% 29.95 in 3.0 mi Calm Calm - N/A   Overcast
6:10 AM 73.4 °F - 71.6 °F 94% 29.96 in 4.0 mi Calm Calm - N/A   Overcast
6:52 AM 73.0 °F - 73.0 °F 100% 29.97 in 3.0 mi Calm Calm - N/A   Overcast
7:52 AM 75.0 °F - 73.9 °F 96% 29.99 in 4.0 mi WSW 3.5 mph - N/A   Mostly Cloudy
8:11 AM 75.2 °F - 73.4 °F 94% 30.00 in 4.0 mi Calm Calm - N/A   Partly Cloudy
8:52 AM 79.0 °F - 72.0 °F 79% 30.00 in 10.0 mi WNW 3.5 mph - N/A   Scattered Clouds
9:44 AM 80.6 °F 84.6 °F 71.6 °F 74% 30.03 in 10.0 mi Variable 4.6 mph - N/A   Mostly Cloudy
9:52 AM 80.1 °F 83.8 °F 72.0 °F 76% 30.02 in 10.0 mi Calm Calm - N/A   Mostly Cloudy
10:23 AM 82.4 °F 87.2 °F 71.6 °F 70% 30.03 in 10.0 mi Calm Calm - N/A   Scattered Clouds
10:52 AM 82.0 °F 86.7 °F 72.0 °F 71% 30.01 in 10.0 mi Calm Calm - N/A   Clear
11:18 AM 82.4 °F 87.2 °F 71.6 °F 70% 30.02 in 10.0 mi Calm Calm - N/A   Mostly Cloudy
11:37 AM 82.4 °F 88.2 °F 73.4 °F 74% 30.02 in 10.0 mi WSW 3.5 mph - N/A   Overcast
11:47 AM 82.4 °F 87.2 °F 71.6 °F 70% 30.02 in 10.0 mi Calm Calm - N/A   Overcast
11:52 AM 84.0 °F 90.2 °F 73.0 °F 69% 30.01 in 10.0 mi Calm Calm - N/A   Overcast
12:31 PM 82.4 °F 88.2 °F 73.4 °F 74% 30.02 in 10.0 mi South 5.8 mph - N/A   Overcast
12:52 PM 82.0 °F 86.7 °F 72.0 °F 71% 30.02 in 10.0 mi Calm Calm - N/A   Overcast
1:37 PM 86.0 °F 93.4 °F 73.4 °F 66% 30.02 in 10.0 mi WSW 5.8 mph - N/A   Scattered Clouds
1:52 PM 86.0 °F 93.8 °F 73.9 °F 67% 30.00 in 10.0 mi Variable 4.6 mph - N/A   Partly Cloudy
2:52 PM 84.9 °F 91.4 °F 73.0 °F 67% 29.99 in 10.0 mi SW 8.1 mph - N/A   Mostly Cloudy
3:52 PM 87.1 °F 95.4 °F 73.9 °F 65% 29.98 in 10.0 mi SSW 10.4 mph - N/A   Scattered Clouds
4:52 PM 86.0 °F 93.0 °F 73.0 °F 65% 29.98 in 10.0 mi WSW 8.1 mph - N/A   Partly Cloudy
5:52 PM 87.1 °F 94.5 °F 73.0 °F 63% 29.98 in 10.0 mi WSW 8.1 mph - N/A   Partly Cloudy
6:52 PM 84.9 °F 91.4 °F 73.0 °F 67% 29.98 in 10.0 mi WSW 4.6 mph - N/A   Clear
7:52 PM 82.9 °F 89.4 °F 73.9 °F 74% 29.99 in 10.0 mi SW 3.5 mph - N/A   Clear
8:52 PM 81.0 °F 86.7 °F 75.0 °F 82% 30.01 in 10.0 mi SSW 5.8 mph - N/A   Overcast
9:52 PM 79.0 °F - 75.0 °F 88% 30.01 in 9.0 mi SSW 5.8 mph - N/A   Clear
10:52 PM 78.1 °F - 75.0 °F 90% 30.03 in 9.0 mi South 8.1 mph - N/A   Partly Cloudy
11:52 PM 77.0 °F - 75.0 °F 94% 30.04 in 10.0 mi SSW 10.4 mph - N/A   Mostly Cloudy